This is the latest recevied weather packets stored in our database for station/object KF0PEC-15. If no packets are shown the sender has not sent any weather packets the latest 10 day(s).
| Time | Temp. | Humidity | Pressure | Rain* | Wind** | Luminosity | Snow |
|---|---|---|---|---|---|---|---|
| 1777557455 | 2.78° C | 92% | 1027.3 hPa | 0 mm | - | 462 W/m² | - |
| 1777556890 | 2.78° C | 92% | 1027.3 hPa | 0 mm | - | 287 W/m² | - |
| 1777556380 | 2.78° C | 92% | 1027.2 hPa | 0 mm | - | 308 W/m² | - |
| 1777555865 | 2.78° C | 93% | 1027.3 hPa | 0 mm | - | 317 W/m² | - |
| 1777555345 | 2.78° C | 94% | 1027.2 hPa | 0 mm | - | 272 W/m² | - |
| 1777554835 | 2.78° C | 95% | 1027.1 hPa | 0 mm | - | 301 W/m² | - |
| 1777554350 | 2.78° C | 95% | 1027 hPa | 0 mm | - | 220 W/m² | - |
| 1777553760 | 2.78° C | 95% | 1026.9 hPa | 0 mm | - | 153 W/m² | - |
| 1777553210 | 2.78° C | 95% | 1026.8 hPa | 0 mm | - | 102 W/m² | - |
| 1777552660 | 2.78° C | 95% | 1026.7 hPa | 0 mm | - | 101 W/m² | - |
| 1777552170 | 2.78° C | 95% | 1026.6 hPa | 0 mm | - | 580 W/m² | - |
| 1777551655 | 2.78° C | 95% | 1026.8 hPa | 0 mm | - | 393 W/m² | - |
| 1777551060 | 2.78° C | 95% | 1026.8 hPa | 0 mm | - | 142 W/m² | - |
| 1777550565 | 2.22° C | 95% | 1026.9 hPa | 0 mm | - | 52 W/m² | - |
| 1777550057 | 2.22° C | 95% | 1027 hPa | 0 mm | - | 4 W/m² | - |
| 1777549510 | 2.22° C | 95% | 1027.1 hPa | 0 mm | - | 0 W/m² | - |
| 1777549015 | 2.22° C | 95% | 1027.1 hPa | 0 mm | - | 0 W/m² | - |
| 1777548505 | 2.22° C | 95% | 1027.1 hPa | 0 mm | - | 0 W/m² | - |
| 1777547925 | 2.22° C | 95% | 1027.3 hPa | 0 mm | - | 0 W/m² | - |
| 1777547385 | 2.22° C | 95% | 1027.3 hPa | 0 mm | - | 0 W/m² | - |
| 1777546880 | 2.22° C | 95% | 1027.3 hPa | 0 mm | - | 0 W/m² | - |
| 1777546290 | 2.22° C | 94% | 1027.2 hPa | 0 mm | - | 0 W/m² | - |
| 1777545777 | 2.22° C | 94% | 1027.3 hPa | 0 mm | - | 0 W/m² | - |
| 1777545180 | 2.22° C | 94% | 1027.5 hPa | 0 mm | - | 0 W/m² | - |
| 1777544595 | 2.22° C | 94% | 1027.6 hPa | 0 mm | - | 0 W/m² | - |
* Rain latest hour (hover to see other rain measurements)
** Current wind speed in m/s (hover to see current wind gust speed)